CYGFM02 (41886 NORAD) Tracking and Keplerian Element Data

This shows tracking and keplerian element data for the satellite.

Feedback or suggestion? Click here.




ElementValue
Catalog41886
NameCYGFM02
Epoch Orbit10663
Epoch Day322.61772737
Epoch Year2018
RAAN39.7023
Inclination34.96
Eccentricity0.0015739
Argument of Perigee297.8698
Mean Anonmoly62.0419
Mean Motion15.14755062
Decay Rate3.93E-06
L11 41886U 16078C 18322.61772737 .00000393 00000-0 22419-4 0 9992
L22 41886 34.9600 39.7023 0015739 297.8698 62.0419 15.14755062106633

Live tracking and technical data element details for CYGFM02 (NORAD 41886). CYGFM02 can be tracked NOW for your location showing map with azimuth and elevation plus other details from your city location.

Track the satellite on the map from your city or location and see movement details for azimuth, elevation, latitude, longitude, range, height, and movement on the map or in text.







IsCatalogInMostPopularTable: catalog: 41886, numindb: 135
Update: records affected: 1



GetName: 41886 CYGFM02

Hit Count: updated at: Tue, 20 Nov 2018 00:58:39 GMT